#ZEITBEREICH: 20.04.2023 bis 20.04.2024
Datum;Zeit;DDCS NO AM1H [�g/m�];DDCS NO2 AM1H [�g/m�];DDCS PM10F GM24H [�g/m�]
20.04.2023;01:00;<7;<10;17
20.04.2023;02:00;<7;<10;17
20.04.2023;03:00;<7;11;17
20.04.2023;04:00;<7;19;17
20.04.2023;05:00;<7;27;16
20.04.2023;06:00;14;44;16
20.04.2023;07:00;8;32;17
20.04.2023;08:00;8;31;17
20.04.2023;09:00;<7;19;17
20.04.2023;10:00;<7;23;16
20.04.2023;11:00;<7;23;16
20.04.2023;12:00;<7;16;16
20.04.2023;13:00;<7;16;16
20.04.2023;14:00;<7;18;15
20.04.2023;15:00;<7;20;15
20.04.2023;16:00;<7;17;15
20.04.2023;17:00;<7;20;15
20.04.2023;18:00;<7;17;14
20.04.2023;19:00;;;14
20.04.2023;20:00;<7;13;14
20.04.2023;21:00;<7;19;14
20.04.2023;22:00;<7;20;14
20.04.2023;23:00;<7;18;14
20.04.2023;24:00;<7;17;14
21.04.2023;01:00;<7;12;14
21.04.2023;02:00;<7;11;14
21.04.2023;03:00;<7;14;14
21.04.2023;04:00;<7;14;15
21.04.2023;05:00;<7;26;15
21.04.2023;06:00;12;41;15
21.04.2023;07:00;53;50;15
21.04.2023;08:00;51;48;15
21.04.2023;09:00;18;35;16
21.04.2023;10:00;23;36;16
21.04.2023;11:00;18;29;17
21.04.2023;12:00;14;23;18
21.04.2023;13:00;15;24;18
21.04.2023;14:00;<7;14;19
21.04.2023;15:00;<7;13;19
21.04.2023;16:00;<7;15;19
21.04.2023;17:00;<7;15;19
21.04.2023;18:00;14;38;19
21.04.2023;19:00;34;72;19
21.04.2023;20:00;;;19
21.04.2023;21:00;16;51;19
21.04.2023;22:00;7;37;19
21.04.2023;23:00;17;52;19
21.04.2023;24:00;9;49;18
22.04.2023;01:00;8;50;18
22.04.2023;02:00;<7;31;18
22.04.2023;03:00;<7;27;17
22.04.2023;04:00;<7;22;17
22.04.2023;05:00;<7;21;16
22.04.2023;06:00;<7;27;16
22.04.2023;07:00;<7;27;15
22.04.2023;08:00;<7;25;15
22.04.2023;09:00;<7;21;14
22.04.2023;10:00;<7;21;13
22.04.2023;11:00;<7;19;13
22.04.2023;12:00;11;24;12
22.04.2023;13:00;11;23;11
22.04.2023;14:00;10;24;11
22.04.2023;15:00;20;38;11
22.04.2023;16:00;30;60;11
22.04.2023;17:00;29;53;11
22.04.2023;18:00;44;71;11
22.04.2023;19:00;52;75;11
22.04.2023;20:00;22;62;11
22.04.2023;21:00;;;11
22.04.2023;22:00;19;30;11
22.04.2023;23:00;19;32;12
22.04.2023;24:00;16;35;12
23.04.2023;01:00;9;27;12
23.04.2023;02:00;10;29;13
23.04.2023;03:00;<7;21;13
23.04.2023;04:00;<7;21;13
23.04.2023;05:00;<7;20;14
23.04.2023;06:00;<7;24;14
23.04.2023;07:00;<7;30;15
23.04.2023;08:00;<7;25;15
23.04.2023;09:00;8;19;15
23.04.2023;10:00;12;21;16
23.04.2023;11:00;10;19;16
23.04.2023;12:00;14;28;16
23.04.2023;13:00;20;32;16
23.04.2023;14:00;8;20;15
23.04.2023;15:00;<7;16;15
23.04.2023;16:00;<7;18;15
23.04.2023;17:00;11;29;14
23.04.2023;18:00;18;45;14
23.04.2023;19:00;<7;20;14
23.04.2023;20:00;<7;22;14
23.04.2023;21:00;<7;27;14
23.04.2023;22:00;;;13
23.04.2023;23:00;<7;<10;13
23.04.2023;24:00;<7;<10;12
24.04.2023;01:00;<7;<10;11
24.04.2023;02:00;<7;<10;11
24.04.2023;03:00;<7;<10;10
24.04.2023;04:00;<7;<10;<10
24.04.2023;05:00;<7;16;<10
24.04.2023;06:00;14;36;<10
24.04.2023;07:00;24;47;<10
24.04.2023;08:00;22;40;<10
24.04.2023;09:00;16;31;<10
24.04.2023;10:00;19;36;<10
24.04.2023;11:00;23;41;<10
24.04.2023;12:00;21;41;<10
24.04.2023;13:00;22;36;<10
24.04.2023;14:00;20;34;<10
24.04.2023;15:00;20;33;<10
24.04.2023;16:00;22;34;<10
24.04.2023;17:00;20;31;<10
24.04.2023;18:00;16;31;<10
24.04.2023;19:00;13;30;<10
24.04.2023;20:00;13;34;<10
24.04.2023;21:00;12;34;<10
24.04.2023;22:00;9;30;<10
24.04.2023;23:00;;;<10
24.04.2023;24:00;<7;16;<10
25.04.2023;01:00;<7;14;10
25.04.2023;02:00;<7;12;11
25.04.2023;03:00;<7;15;11
25.04.2023;04:00;<7;12;11
25.04.2023;05:00;10;21;11
25.04.2023;06:00;21;35;11
25.04.2023;07:00;48;53;11
25.04.2023;08:00;44;52;12
25.04.2023;09:00;26;38;12
25.04.2023;10:00;36;42;13
25.04.2023;11:00;23;33;13
25.04.2023;12:00;28;38;14
25.04.2023;13:00;25;33;14
25.04.2023;14:00;24;36;14
25.04.2023;15:00;30;42;14
25.04.2023;16:00;39;46;14
25.04.2023;17:00;34;44;14
25.04.2023;18:00;29;48;14
25.04.2023;19:00;18;36;14
25.04.2023;20:00;18;34;14
25.04.2023;21:00;15;36;14
25.04.2023;22:00;14;34;14
25.04.2023;23:00;9;23;14
25.04.2023;24:00;;;14
26.04.2023;01:00;<7;18;14
26.04.2023;02:00;<7;14;14
26.04.2023;03:00;<7;26;14
26.04.2023;04:00;<7;35;14
26.04.2023;05:00;10;46;14
26.04.2023;06:00;48;55;14
26.04.2023;07:00;104;58;14
26.04.2023;08:00;90;69;15
26.04.2023;09:00;39;57;15
26.04.2023;10:00;32;53;15
26.04.2023;11:00;36;48;15
26.04.2023;12:00;35;49;15
26.04.2023;13:00;33;45;16
26.04.2023;14:00;35;50;16
26.04.2023;15:00;35;49;16
26.04.2023;16:00;28;43;16
26.04.2023;17:00;24;39;16
26.04.2023;18:00;35;54;16
26.04.2023;19:00;22;44;16
26.04.2023;20:00;18;49;17
26.04.2023;21:00;10;38;17
26.04.2023;22:00;9;35;17
26.04.2023;23:00;<7;24;17
26.04.2023;24:00;<7;27;18
27.04.2023;01:00;;;18
27.04.2023;02:00;<7;22;18
27.04.2023;03:00;<7;19;18
27.04.2023;04:00;<7;17;18
27.04.2023;05:00;<7;29;18
27.04.2023;06:00;<7;40;17
27.04.2023;07:00;7;32;17
27.04.2023;08:00;23;46;17
27.04.2023;09:00;19;36;17
27.04.2023;10:00;13;25;17
27.04.2023;11:00;12;25;17
27.04.2023;12:00;12;26;17
27.04.2023;13:00;17;31;17
27.04.2023;14:00;14;30;17
27.04.2023;15:00;14;34;17
27.04.2023;16:00;23;51;17
27.04.2023;17:00;18;44;17
27.04.2023;18:00;10;37;17
27.04.2023;19:00;<7;26;18
27.04.2023;20:00;<7;26;18
27.04.2023;21:00;<7;25;18
27.04.2023;22:00;<7;22;18
27.04.2023;23:00;<7;24;18
27.04.2023;24:00;<7;26;18
28.04.2023;01:00;<7;30;18
28.04.2023;02:00;;;19
28.04.2023;03:00;<7;21;19
28.04.2023;04:00;<7;22;19
28.04.2023;05:00;<7;28;19
28.04.2023;06:00;<7;31;19
28.04.2023;07:00;7;40;19
28.04.2023;08:00;7;34;18
28.04.2023;09:00;9;33;18
28.04.2023;10:00;11;33;18
28.04.2023;11:00;12;38;18
28.04.2023;12:00;33;52;18
28.04.2023;13:00;60;55;18
28.04.2023;14:00;52;45;18
28.04.2023;15:00;50;43;18
28.04.2023;16:00;37;40;18
28.04.2023;17:00;23;29;17
28.04.2023;18:00;28;37;17
28.04.2023;19:00;24;31;17
28.04.2023;20:00;24;34;16
28.04.2023;21:00;25;33;16
28.04.2023;22:00;14;22;16
28.04.2023;23:00;10;18;16
28.04.2023;24:00;8;20;15
29.04.2023;01:00;<7;21;15
29.04.2023;02:00;<7;18;15
29.04.2023;03:00;;;16
29.04.2023;04:00;<7;13;17
29.04.2023;05:00;<7;13;17
29.04.2023;06:00;<7;21;18
29.04.2023;07:00;8;21;18
29.04.2023;08:00;13;24;18
29.04.2023;09:00;17;33;18
29.04.2023;10:00;18;30;18
29.04.2023;11:00;28;43;19
29.04.2023;12:00;44;55;20
29.04.2023;13:00;36;47;20
29.04.2023;14:00;46;55;21
29.04.2023;15:00;37;60;22
29.04.2023;16:00;40;61;23
29.04.2023;17:00;39;62;24
29.04.2023;18:00;44;64;25
29.04.2023;19:00;37;69;25
29.04.2023;20:00;44;82;26
29.04.2023;21:00;27;67;26
29.04.2023;22:00;44;84;26
29.04.2023;23:00;29;68;27
29.04.2023;24:00;<7;34;27
30.04.2023;01:00;<7;26;27
30.04.2023;02:00;<7;21;27
30.04.2023;03:00;<7;24;26
30.04.2023;04:00;;;25
30.04.2023;05:00;11;31;25
30.04.2023;06:00;10;37;25
30.04.2023;07:00;<7;25;25
30.04.2023;08:00;<7;21;25
30.04.2023;09:00;7;18;25
30.04.2023;10:00;10;19;24
30.04.2023;11:00;9;16;23
30.04.2023;12:00;7;14;22
30.04.2023;13:00;<7;12;20
30.04.2023;14:00;<7;12;19
30.04.2023;15:00;<7;13;18
30.04.2023;16:00;<7;12;16
30.04.2023;17:00;<7;12;15
30.04.2023;18:00;<7;14;14
30.04.2023;19:00;<7;14;13
30.04.2023;20:00;<7;20;13
30.04.2023;21:00;<7;26;12
30.04.2023;22:00;7;29;12
30.04.2023;23:00;<7;20;11
30.04.2023;24:00;<7;18;11
01.05.2023;01:00;<7;33;11
01.05.2023;02:00;14;52;11
01.05.2023;03:00;<7;40;10
01.05.2023;04:00;<7;30;10
01.05.2023;05:00;;;<10
01.05.2023;06:00;<7;26;<10
01.05.2023;07:00;<7;24;<10
01.05.2023;08:00;<7;16;<10
01.05.2023;09:00;<7;13;<10
01.05.2023;10:00;<7;17;<10
01.05.2023;11:00;7;21;<10
01.05.2023;12:00;11;26;<10
01.05.2023;13:00;12;23;<10
01.05.2023;14:00;11;24;<10
01.05.2023;15:00;11;23;<10
01.05.2023;16:00;14;29;<10
01.05.2023;17:00;16;35;10
01.05.2023;18:00;21;43;11
01.05.2023;19:00;17;39;11
01.05.2023;20:00;15;36;11
01.05.2023;21:00;13;36;12
01.05.2023;22:00;16;39;12
01.05.2023;23:00;7;31;12
01.05.2023;24:00;<7;22;13
02.05.2023;01:00;<7;22;13
02.05.2023;02:00;<7;24;14
02.05.2023;03:00;<7;14;15
02.05.2023;04:00;<7;12;16
02.05.2023;05:00;7;18;16
02.05.2023;06:00;;;17
02.05.2023;07:00;43;46;18
02.05.2023;08:00;48;54;18
02.05.2023;09:00;37;47;18
02.05.2023;10:00;27;40;18
02.05.2023;11:00;33;43;19
02.05.2023;12:00;29;43;19
02.05.2023;13:00;27;37;19
02.05.2023;14:00;23;37;19
02.05.2023;15:00;29;41;20
02.05.2023;16:00;32;43;20
02.05.2023;17:00;29;49;20
02.05.2023;18:00;27;50;20
02.05.2023;19:00;20;44;21
02.05.2023;20:00;12;37;21
02.05.2023;21:00;<7;28;21
02.05.2023;22:00;<7;32;21
02.05.2023;23:00;<7;22;21
02.05.2023;24:00;<7;19;20
03.05.2023;01:00;<7;22;20
03.05.2023;02:00;<7;18;19
03.05.2023;03:00;<7;20;18
03.05.2023;04:00;<7;22;18
03.05.2023;05:00;<7;31;17
03.05.2023;06:00;<7;39;17
03.05.2023;07:00;;;17
03.05.2023;08:00;23;42;17
03.05.2023;09:00;10;23;17
03.05.2023;10:00;10;20;17
03.05.2023;11:00;10;19;17
03.05.2023;12:00;11;21;17
03.05.2023;13:00;14;24;17
03.05.2023;14:00;13;23;17
03.05.2023;15:00;<7;19;17
03.05.2023;16:00;<7;19;17
03.05.2023;17:00;<7;21;17
03.05.2023;18:00;<7;22;17
03.05.2023;19:00;<7;22;16
03.05.2023;20:00;<7;23;16
03.05.2023;21:00;<7;23;16
03.05.2023;22:00;<7;25;16
03.05.2023;23:00;<7;19;16
03.05.2023;24:00;<7;21;16
04.05.2023;01:00;<7;21;16
04.05.2023;02:00;<7;20;17
04.05.2023;03:00;<7;23;17
04.05.2023;04:00;<7;33;17
04.05.2023;05:00;8;48;17
04.05.2023;06:00;18;58;17
04.05.2023;07:00;34;63;17
04.05.2023;08:00;;;17
04.05.2023;09:00;17;41;17
04.05.2023;10:00;8;25;17
04.05.2023;11:00;10;24;17
04.05.2023;12:00;11;24;18
04.05.2023;13:00;7;22;18
04.05.2023;14:00;<7;16;17
04.05.2023;15:00;12;32;17
04.05.2023;16:00;<7;27;17
04.05.2023;17:00;<7;21;17
04.05.2023;18:00;<7;21;17
04.05.2023;19:00;<7;29;17
04.05.2023;20:00;<7;28;17
04.05.2023;21:00;<7;30;17
04.05.2023;22:00;<7;33;17
04.05.2023;23:00;<7;24;17
04.05.2023;24:00;<7;19;17
05.05.2023;01:00;<7;26;17
05.05.2023;02:00;<7;33;17
05.05.2023;03:00;<7;45;17
05.05.2023;04:00;<7;49;18
05.05.2023;05:00;21;65;18
05.05.2023;06:00;44;80;18
05.05.2023;07:00;60;73;19
05.05.2023;08:00;45;65;20
05.05.2023;09:00;;;21
05.05.2023;10:00;37;53;21
05.05.2023;11:00;22;41;21
05.05.2023;12:00;34;55;21
05.05.2023;13:00;26;54;22
05.05.2023;14:00;27;53;22
05.05.2023;15:00;21;40;22
05.05.2023;16:00;29;49;22
05.05.2023;17:00;33;55;22
05.05.2023;18:00;21;41;22
05.05.2023;19:00;19;53;22
05.05.2023;20:00;17;53;21
05.05.2023;21:00;14;44;21
05.05.2023;22:00;37;65;21
05.05.2023;23:00;29;59;21
05.05.2023;24:00;23;48;21
06.05.2023;01:00;<7;38;22
06.05.2023;02:00;16;40;22
06.05.2023;03:00;<7;35;22
06.05.2023;04:00;7;36;22
06.05.2023;05:00;8;38;21
06.05.2023;06:00;14;35;21
06.05.2023;07:00;20;32;20
06.05.2023;08:00;23;30;19
06.05.2023;09:00;24;33;18
06.05.2023;10:00;;;18
06.05.2023;11:00;17;32;17
06.05.2023;12:00;13;26;17
06.05.2023;13:00;11;25;16
06.05.2023;14:00;29;41;16
06.05.2023;15:00;14;30;15
06.05.2023;16:00;27;53;15
06.05.2023;17:00;21;44;15
06.05.2023;18:00;14;36;15
06.05.2023;19:00;10;38;15
06.05.2023;20:00;28;55;15
06.05.2023;21:00;14;45;15
06.05.2023;22:00;<7;39;14
06.05.2023;23:00;<7;35;14
06.05.2023;24:00;<7;37;14
07.05.2023;01:00;10;38;13
07.05.2023;02:00;<7;31;13
07.05.2023;03:00;<7;27;13
07.05.2023;04:00;<7;25;12
07.05.2023;05:00;<7;24;12
07.05.2023;06:00;<7;19;12
07.05.2023;07:00;<7;18;11
07.05.2023;08:00;<7;18;11
07.05.2023;09:00;7;19;10
07.05.2023;10:00;<7;16;10
07.05.2023;11:00;;;<10
07.05.2023;12:00;7;21;<10
07.05.2023;13:00;10;24;<10
07.05.2023;14:00;19;43;<10
07.05.2023;15:00;9;28;10
07.05.2023;16:00;<7;17;10
07.05.2023;17:00;7;23;10
07.05.2023;18:00;9;25;10
07.05.2023;19:00;<7;26;11
07.05.2023;20:00;20;45;11
07.05.2023;21:00;9;31;11
07.05.2023;22:00;<7;27;11
07.05.2023;23:00;<7;29;11
07.05.2023;24:00;<7;29;11
08.05.2023;01:00;<7;33;11
08.05.2023;02:00;<7;28;11
08.05.2023;03:00;<7;25;11
08.05.2023;04:00;<7;24;11
08.05.2023;05:00;<7;26;12
08.05.2023;06:00;11;43;12
08.05.2023;07:00;11;25;12
08.05.2023;08:00;14;26;12
08.05.2023;09:00;17;27;13
08.05.2023;10:00;16;32;13
08.05.2023;11:00;9;26;14
08.05.2023;12:00;;;14
08.05.2023;13:00;10;20;14
08.05.2023;14:00;9;20;14
08.05.2023;15:00;8;22;14
08.05.2023;16:00;9;20;14
08.05.2023;17:00;<7;19;14
08.05.2023;18:00;9;24;14
08.05.2023;19:00;<7;19;15
08.05.2023;20:00;<7;21;15
08.05.2023;21:00;<7;24;15
08.05.2023;22:00;<7;20;15
08.05.2023;23:00;<7;18;15
08.05.2023;24:00;<7;17;15
09.05.2023;01:00;<7;16;15
09.05.2023;02:00;<7;17;15
09.05.2023;03:00;<7;24;15
09.05.2023;04:00;<7;17;16
09.05.2023;05:00;8;22;17
09.05.2023;06:00;7;29;18
09.05.2023;07:00;17;31;18
09.05.2023;08:00;25;31;19
09.05.2023;09:00;20;32;19
09.05.2023;10:00;21;28;19
09.05.2023;11:00;16;25;19
09.05.2023;12:00;20;31;19
09.05.2023;13:00;;;19
09.05.2023;14:00;12;24;19
09.05.2023;15:00;27;35;19
09.05.2023;16:00;34;40;20
09.05.2023;17:00;55;48;20
09.05.2023;18:00;39;44;20
09.05.2023;19:00;25;41;19
09.05.2023;20:00;26;41;19
09.05.2023;21:00;18;33;19
09.05.2023;22:00;17;27;18
09.05.2023;23:00;12;21;18
09.05.2023;24:00;<7;14;17
10.05.2023;01:00;<7;12;17
10.05.2023;02:00;<7;11;17
10.05.2023;03:00;<7;12;16
10.05.2023;04:00;<7;17;15
10.05.2023;05:00;10;26;14
10.05.2023;06:00;18;32;13
10.05.2023;07:00;42;43;13
10.05.2023;08:00;36;40;12
10.05.2023;09:00;34;39;12
10.05.2023;10:00;27;36;13
10.05.2023;11:00;26;38;13
10.05.2023;12:00;26;37;14
10.05.2023;13:00;48;53;14
10.05.2023;14:00;28;43;15
10.05.2023;15:00;32;41;15
10.05.2023;16:00;31;46;15
10.05.2023;17:00;28;43;15
10.05.2023;18:00;27;44;15
10.05.2023;19:00;19;37;15
10.05.2023;20:00;17;38;15
10.05.2023;21:00;20;44;15
10.05.2023;22:00;19;49;16
10.05.2023;23:00;9;45;16
10.05.2023;24:00;10;48;16
11.05.2023;01:00;<7;44;17
11.05.2023;02:00;<7;19;17
11.05.2023;03:00;<7;12;17
11.05.2023;04:00;<7;19;18
11.05.2023;05:00;10;28;18
11.05.2023;06:00;20;46;18
11.05.2023;07:00;71;68;18
11.05.2023;08:00;51;51;18
11.05.2023;09:00;30;41;19
11.05.2023;10:00;38;48;18
11.05.2023;11:00;35;43;18
11.05.2023;12:00;37;41;18
11.05.2023;13:00;28;39;18
11.05.2023;14:00;33;42;18
11.05.2023;15:00;35;49;18
11.05.2023;16:00;37;57;19
11.05.2023;17:00;39;63;19
11.05.2023;18:00;27;53;20
11.05.2023;19:00;17;52;20
11.05.2023;20:00;12;46;20
11.05.2023;21:00;25;56;20
11.05.2023;22:00;24;55;20
11.05.2023;23:00;15;39;20
11.05.2023;24:00;<7;28;20
12.05.2023;01:00;<7;18;20
12.05.2023;02:00;<7;13;20
12.05.2023;03:00;<7;11;19
12.05.2023;04:00;<7;16;19
12.05.2023;05:00;<7;21;18
12.05.2023;06:00;22;34;18
12.05.2023;07:00;10;27;18
12.05.2023;08:00;<7;22;17
12.05.2023;09:00;15;25;16
12.05.2023;10:00;14;29;16
12.05.2023;11:00;12;24;15
12.05.2023;12:00;10;19;14
12.05.2023;13:00;7;21;14
12.05.2023;14:00;<7;18;13
12.05.2023;15:00;<7;21;13
12.05.2023;16:00;7;26;12
12.05.2023;17:00;<7;25;12
12.05.2023;18:00;8;35;12
12.05.2023;19:00;15;50;12
12.05.2023;20:00;12;50;12
12.05.2023;21:00;14;62;12
12.05.2023;22:00;27;70;13
12.05.2023;23:00;50;82;13
12.05.2023;24:00;35;76;14
13.05.2023;01:00;29;68;15
13.05.2023;02:00;9;44;15
13.05.2023;03:00;<7;35;16
13.05.2023;04:00;9;41;17
13.05.2023;05:00;8;44;18
13.05.2023;06:00;16;48;18
13.05.2023;07:00;20;46;19
13.05.2023;08:00;17;40;20
13.05.2023;09:00;22;45;21
13.05.2023;10:00;13;35;21
13.05.2023;11:00;25;39;22
13.05.2023;12:00;7;20;23
13.05.2023;13:00;<7;18;23
13.05.2023;14:00;<7;16;23
13.05.2023;15:00;8;27;24
13.05.2023;16:00;23;52;24
13.05.2023;17:00;11;28;24
13.05.2023;18:00;31;56;24
13.05.2023;19:00;42;76;25
13.05.2023;20:00;40;85;26
13.05.2023;21:00;40;95;26
13.05.2023;22:00;47;99;26
13.05.2023;23:00;46;98;26
13.05.2023;24:00;55;91;26
14.05.2023;01:00;32;74;26
14.05.2023;02:00;14;61;27
14.05.2023;03:00;11;50;27
14.05.2023;04:00;25;56;27
14.05.2023;05:00;37;54;27
14.05.2023;06:00;10;34;27
14.05.2023;07:00;13;27;27
14.05.2023;08:00;19;30;27
14.05.2023;09:00;21;39;27
14.05.2023;10:00;21;44;27
14.05.2023;11:00;20;43;27
14.05.2023;12:00;14;35;27
14.05.2023;13:00;12;29;27
14.05.2023;14:00;8;21;27
14.05.2023;15:00;12;30;27
14.05.2023;16:00;11;31;27
14.05.2023;17:00;7;23;26
14.05.2023;18:00;15;44;26
14.05.2023;19:00;18;48;26
14.05.2023;20:00;9;34;25
14.05.2023;21:00;8;39;25
14.05.2023;22:00;12;49;24
14.05.2023;23:00;8;40;24
14.05.2023;24:00;<7;35;24
15.05.2023;01:00;<7;22;23
15.05.2023;02:00;<7;16;23
15.05.2023;03:00;<7;12;23
15.05.2023;04:00;<7;12;23
15.05.2023;05:00;7;21;23
15.05.2023;06:00;16;41;23
15.05.2023;07:00;37;42;24
15.05.2023;08:00;36;41;24
15.05.2023;09:00;25;38;24
15.05.2023;10:00;29;36;25
15.05.2023;11:00;36;44;25
15.05.2023;12:00;26;45;26
15.05.2023;13:00;20;37;26
15.05.2023;14:00;17;36;27
15.05.2023;15:00;21;46;27
15.05.2023;16:00;21;37;28
15.05.2023;17:00;19;33;29
15.05.2023;18:00;22;39;29
15.05.2023;19:00;14;31;29
15.05.2023;20:00;12;25;29
15.05.2023;21:00;10;21;29
15.05.2023;22:00;<7;14;29
15.05.2023;23:00;<7;16;29
15.05.2023;24:00;<7;12;28
16.05.2023;01:00;<7;<10;27
16.05.2023;02:00;<7;<10;27
16.05.2023;03:00;<7;<10;26
16.05.2023;04:00;<7;15;26
16.05.2023;05:00;<7;19;25
16.05.2023;06:00;20;34;24
16.05.2023;07:00;34;45;23
16.05.2023;08:00;39;45;23
16.05.2023;09:00;26;35;22
16.05.2023;10:00;24;30;21
16.05.2023;11:00;19;26;20
16.05.2023;12:00;33;38;19
16.05.2023;13:00;24;31;18
16.05.2023;14:00;32;35;17
16.05.2023;15:00;25;34;16
16.05.2023;16:00;34;42;15
16.05.2023;17:00;;;14
16.05.2023;18:00;30;43;14
16.05.2023;19:00;25;42;13
16.05.2023;20:00;20;37;12
16.05.2023;21:00;13;30;12
16.05.2023;22:00;10;25;12
16.05.2023;23:00;<7;19;12
16.05.2023;24:00;<7;24;12
17.05.2023;01:00;<7;30;12
17.05.2023;02:00;<7;12;12
17.05.2023;03:00;<7;11;12
17.05.2023;04:00;<7;19;12
17.05.2023;05:00;10;30;12
17.05.2023;06:00;19;31;12
17.05.2023;07:00;41;44;12
17.05.2023;08:00;;;13
17.05.2023;09:00;;;13
17.05.2023;10:00;;;13
17.05.2023;11:00;;;13
17.05.2023;12:00;;;13
17.05.2023;13:00;36;38;14
17.05.2023;14:00;28;35;14
17.05.2023;15:00;34;42;15
17.05.2023;16:00;28;40;15
17.05.2023;17:00;17;30;15
17.05.2023;18:00;27;42;16
17.05.2023;19:00;21;39;16
17.05.2023;20:00;8;24;16
17.05.2023;21:00;<7;25;16
17.05.2023;22:00;<7;25;17
17.05.2023;23:00;<7;22;17
17.05.2023;24:00;<7;19;17
18.05.2023;01:00;<7;17;17
18.05.2023;02:00;<7;16;18
18.05.2023;03:00;<7;17;18
18.05.2023;04:00;<7;20;18
18.05.2023;05:00;<7;23;18
18.05.2023;06:00;<7;27;18
18.05.2023;07:00;<7;21;18
18.05.2023;08:00;<7;16;17
18.05.2023;09:00;<7;13;17
18.05.2023;10:00;<7;<10;17
18.05.2023;11:00;<7;<10;17
18.05.2023;12:00;<7;<10;17
18.05.2023;13:00;;;16
18.05.2023;14:00;<7;11;16
18.05.2023;15:00;<7;11;16
18.05.2023;16:00;<7;10;16
18.05.2023;17:00;<7;12;15
18.05.2023;18:00;<7;14;15
18.05.2023;19:00;<7;13;15
18.05.2023;20:00;<7;14;15
18.05.2023;21:00;<7;18;15
18.05.2023;22:00;<7;16;15
18.05.2023;23:00;<7;18;15
18.05.2023;24:00;<7;19;15
19.05.2023;01:00;<7;21;15
19.05.2023;02:00;<7;21;15
19.05.2023;03:00;<7;19;15
19.05.2023;04:00;<7;20;15
19.05.2023;05:00;<7;26;15
19.05.2023;06:00;17;42;15
19.05.2023;07:00;19;38;15
19.05.2023;08:00;10;25;15
19.05.2023;09:00;8;20;15
19.05.2023;10:00;<7;17;15
19.05.2023;11:00;10;18;15
19.05.2023;12:00;7;16;15
19.05.2023;13:00;12;23;15
19.05.2023;14:00;;;15
19.05.2023;15:00;<7;18;15
19.05.2023;16:00;<7;17;15
19.05.2023;17:00;<7;16;15
19.05.2023;18:00;<7;16;15
19.05.2023;19:00;<7;17;15
19.05.2023;20:00;<7;20;15
19.05.2023;21:00;<7;23;15
19.05.2023;22:00;<7;25;15
19.05.2023;23:00;<7;25;15
19.05.2023;24:00;<7;21;15
20.05.2023;01:00;<7;19;15
20.05.2023;02:00;<7;17;15
20.05.2023;03:00;<7;17;15
20.05.2023;04:00;<7;20;15
20.05.2023;05:00;<7;22;15
20.05.2023;06:00;<7;23;14
20.05.2023;07:00;<7;18;14
20.05.2023;08:00;<7;14;14
20.05.2023;09:00;<7;16;14
20.05.2023;10:00;<7;12;14
20.05.2023;11:00;<7;13;14
20.05.2023;12:00;<7;12;14
20.05.2023;13:00;<7;13;14
20.05.2023;14:00;<7;12;14
20.05.2023;15:00;;;14
20.05.2023;16:00;<7;14;14
20.05.2023;17:00;<7;13;14
20.05.2023;18:00;<7;14;14
20.05.2023;19:00;<7;11;14
20.05.2023;20:00;<7;16;14
20.05.2023;21:00;<7;17;15
20.05.2023;22:00;<7;20;15
20.05.2023;23:00;<7;21;15
20.05.2023;24:00;<7;20;15
21.05.2023;01:00;<7;16;16
21.05.2023;02:00;7;24;16
21.05.2023;03:00;<7;25;16
21.05.2023;04:00;<7;21;16
21.05.2023;05:00;<7;18;16
21.05.2023;06:00;<7;15;17
21.05.2023;07:00;<7;14;17
21.05.2023;08:00;<7;12;17
21.05.2023;09:00;<7;14;17
21.05.2023;10:00;8;14;17
21.05.2023;11:00;8;15;17
21.05.2023;12:00;13;21;18
21.05.2023;13:00;11;22;18
21.05.2023;14:00;<7;16;18
21.05.2023;15:00;<7;14;19
21.05.2023;16:00;;;19
21.05.2023;17:00;<7;14;20
21.05.2023;18:00;<7;20;20
21.05.2023;19:00;8;31;21
21.05.2023;20:00;8;33;21
21.05.2023;21:00;13;46;22
21.05.2023;22:00;13;42;22
21.05.2023;23:00;<7;37;23
21.05.2023;24:00;<7;30;23
22.05.2023;01:00;<7;27;23
22.05.2023;02:00;<7;22;24
22.05.2023;03:00;<7;26;24
22.05.2023;04:00;<7;42;24
22.05.2023;05:00;7;40;24
22.05.2023;06:00;27;58;25
22.05.2023;07:00;66;61;25
22.05.2023;08:00;49;49;27
22.05.2023;09:00;37;39;28
22.05.2023;10:00;32;40;30
22.05.2023;11:00;26;34;31
22.05.2023;12:00;31;36;31
22.05.2023;13:00;26;38;32
22.05.2023;14:00;27;46;33
22.05.2023;15:00;27;55;35
22.05.2023;16:00;27;56;36
22.05.2023;17:00;;;38
22.05.2023;18:00;15;47;39
22.05.2023;19:00;12;36;39
22.05.2023;20:00;11;32;39
22.05.2023;21:00;9;32;39
22.05.2023;22:00;9;39;38
22.05.2023;23:00;8;32;37
22.05.2023;24:00;<7;20;37
23.05.2023;01:00;<7;<10;36
23.05.2023;02:00;<7;<10;35
23.05.2023;03:00;<7;<10;35
23.05.2023;04:00;<7;<10;34
23.05.2023;05:00;<7;11;34
23.05.2023;06:00;12;29;33
23.05.2023;07:00;16;29;32
23.05.2023;08:00;19;40;31
23.05.2023;09:00;18;36;30
23.05.2023;10:00;18;34;28
23.05.2023;11:00;25;39;27
23.05.2023;12:00;29;39;26
23.05.2023;13:00;24;34;25
23.05.2023;14:00;25;33;24
23.05.2023;15:00;26;37;23
23.05.2023;16:00;33;41;21
23.05.2023;17:00;26;40;20
23.05.2023;18:00;;;18
23.05.2023;19:00;19;35;18
23.05.2023;20:00;19;36;18
23.05.2023;21:00;18;41;18
23.05.2023;22:00;13;31;18
23.05.2023;23:00;10;25;18
23.05.2023;24:00;<7;15;18
24.05.2023;01:00;<7;19;18
24.05.2023;02:00;<7;19;18
24.05.2023;03:00;<7;14;18
24.05.2023;04:00;<7;22;19
24.05.2023;05:00;9;31;19
24.05.2023;06:00;35;46;19
24.05.2023;07:00;55;62;20
24.05.2023;08:00;45;56;20
24.05.2023;09:00;39;50;21
24.05.2023;10:00;32;47;22
24.05.2023;11:00;28;39;22
24.05.2023;12:00;30;41;22
24.05.2023;13:00;26;43;22
24.05.2023;14:00;23;39;22
24.05.2023;15:00;30;44;22
24.05.2023;16:00;19;32;22
24.05.2023;17:00;23;40;21
24.05.2023;18:00;10;30;21
24.05.2023;19:00;;;21
24.05.2023;20:00;<7;26;21
24.05.2023;21:00;<7;31;21
24.05.2023;22:00;8;42;21
24.05.2023;23:00;<7;34;22
24.05.2023;24:00;<7;40;22
25.05.2023;01:00;<7;35;22
25.05.2023;02:00;<7;34;23
25.05.2023;03:00;<7;26;23
25.05.2023;04:00;<7;27;23
25.05.2023;05:00;7;39;23
25.05.2023;06:00;27;53;23
25.05.2023;07:00;37;42;23
25.05.2023;08:00;32;36;24
25.05.2023;09:00;15;23;23
25.05.2023;10:00;19;26;23
25.05.2023;11:00;14;24;23
25.05.2023;12:00;11;21;23
25.05.2023;13:00;9;16;23
25.05.2023;14:00;<7;14;22
25.05.2023;15:00;<7;17;22
25.05.2023;16:00;<7;17;22
25.05.2023;17:00;<7;16;22
25.05.2023;18:00;<7;19;22
25.05.2023;19:00;<7;17;22
25.05.2023;20:00;;;21
25.05.2023;21:00;<7;21;21
25.05.2023;22:00;<7;30;21
25.05.2023;23:00;10;36;21
25.05.2023;24:00;<7;20;21
26.05.2023;01:00;<7;17;21
26.05.2023;02:00;<7;11;21
26.05.2023;03:00;<7;<10;21
26.05.2023;04:00;<7;11;21
26.05.2023;05:00;<7;17;21
26.05.2023;06:00;<7;17;21
26.05.2023;07:00;<7;19;21
26.05.2023;08:00;8;20;21
26.05.2023;09:00;8;17;21
26.05.2023;10:00;<7;13;21
26.05.2023;11:00;9;16;21
26.05.2023;12:00;9;17;22
26.05.2023;13:00;7;15;22
26.05.2023;14:00;<7;15;22
26.05.2023;15:00;<7;15;23
26.05.2023;16:00;<7;15;23
26.05.2023;17:00;<7;16;23
26.05.2023;18:00;<7;15;23
26.05.2023;19:00;<7;17;24
26.05.2023;20:00;<7;17;24
26.05.2023;21:00;;;24
26.05.2023;22:00;<7;23;24
26.05.2023;23:00;<7;20;24
26.05.2023;24:00;<7;18;24
27.05.2023;01:00;<7;17;24
27.05.2023;02:00;<7;14;24
27.05.2023;03:00;<7;13;23
27.05.2023;04:00;<7;13;23
27.05.2023;05:00;<7;17;23
27.05.2023;06:00;<7;22;23
27.05.2023;07:00;<7;20;23
27.05.2023;08:00;14;26;22
27.05.2023;09:00;13;23;22
27.05.2023;10:00;19;31;21
27.05.2023;11:00;23;31;21
27.05.2023;12:00;11;23;21
27.05.2023;13:00;9;20;21
27.05.2023;14:00;<7;17;20
27.05.2023;15:00;<7;17;20
27.05.2023;16:00;<7;15;20
27.05.2023;17:00;<7;15;20
27.05.2023;18:00;<7;14;19
27.05.2023;19:00;<7;16;19
27.05.2023;20:00;<7;23;19
27.05.2023;21:00;<7;26;19
27.05.2023;22:00;;;19
27.05.2023;23:00;9;42;19
27.05.2023;24:00;12;51;19
28.05.2023;01:00;12;50;19
28.05.2023;02:00;7;52;19
28.05.2023;03:00;<7;41;19
28.05.2023;04:00;<7;28;19
28.05.2023;05:00;<7;24;19
28.05.2023;06:00;11;49;19
28.05.2023;07:00;7;33;19
28.05.2023;08:00;13;40;19
28.05.2023;09:00;14;32;19
28.05.2023;10:00;<7;14;18
28.05.2023;11:00;<7;12;18
28.05.2023;12:00;<7;10;17